Time,TemperatureF,DewpointF,PressureIn,WindDirection,WindDirectionDegrees,WindSpeedMPH,WindSpeedGustMPH,Humidity,HourlyPrecipIn,Conditions,Clouds,dailyrainin,SoftwareType,DateUTC
2013-06-06 00:04:00,85.9,2.0,29.90,West,278,6.0,10.0,4,0.00,,,0.00,weatherlink.com 1.10,2013-06-06 06:04:00,
2013-06-06 00:19:00,86.2,2.0,29.90,WNW,283,3.0,9.0,4,0.00,,,0.00,weatherlink.com 1.10,2013-06-06 06:19:00,
2013-06-06 00:35:00,86.8,-3.0,29.89,WNW,294,8.0,14.0,3,0.00,,,0.00,weatherlink.com 1.10,2013-06-06 06:35:00,
2013-06-06 00:50:00,86.7,-3.0,29.89,WNW,294,6.0,14.0,3,0.00,,,0.00,weatherlink.com 1.10,2013-06-06 06:50:00,
2013-06-06 01:05:00,86.6,-3.0,29.90,NW,313,6.0,14.0,3,0.00,,,0.00,weatherlink.com 1.10,2013-06-06 07:05:00,
2013-06-06 01:20:00,86.4,3.0,29.90,WNW,285,5.0,15.0,4,0.00,,,0.00,weatherlink.com 1.10,2013-06-06 07:20:00,
2013-06-06 01:36:00,85.7,2.0,29.91,West,275,1.0,10.0,4,0.00,,,0.00,weatherlink.com 1.10,2013-06-06 07:36:00,
2013-06-06 01:51:00,78.5,15.0,29.92,NNE,17,3.0,6.0,9,0.00,,,0.00,weatherlink.com 1.10,2013-06-06 07:51:00,
2013-06-06 02:06:00,75.1,27.0,29.92,NE,35,0.0,3.0,17,0.00,,,0.00,weatherlink.com 1.10,2013-06-06 08:06:00,
2013-06-06 02:21:00,73.5,20.0,29.93,NNE,31,0.0,3.0,13,0.00,,,0.00,weatherlink.com 1.10,2013-06-06 08:21:00,
2013-06-06 02:36:00,73.1,33.0,29.93,SE,130,0.0,7.0,23,0.00,,,0.00,weatherlink.com 1.10,2013-06-06 08:36:00,
2013-06-06 02:52:00,73.1,31.0,29.93,South,185,3.0,7.0,21,0.00,,,0.00,weatherlink.com 1.10,2013-06-06 08:52:00,
2013-06-06 03:07:00,73.2,39.0,29.93,SSE,155,5.0,8.0,29,0.00,,,0.00,weatherlink.com 1.10,2013-06-06 09:07:00,
2013-06-06 03:22:00,72.7,40.0,29.94,SE,143,1.0,7.0,31,0.00,,,0.00,weatherlink.com 1.10,2013-06-06 09:22:00,
2013-06-06 03:52:00,72.7,41.0,29.94,South,186,5.0,14.0,32,0.00,,,0.00,weatherlink.com 1.10,2013-06-06 09:52:00,
2013-06-06 04:07:00,73.0,43.0,29.94,SSW,192,6.0,11.0,34,0.00,,,0.00,weatherlink.com 1.10,2013-06-06 10:07:00,
2013-06-06 04:23:00,72.9,43.0,29.94,SSE,163,6.0,10.0,34,0.00,,,0.00,weatherlink.com 1.10,2013-06-06 10:23:00,
2013-06-06 04:38:00,72.9,44.0,29.94,SSE,157,6.0,11.0,35,0.00,,,0.00,weatherlink.com 1.10,2013-06-06 10:38:00,
2013-06-06 04:53:00,72.7,45.0,29.94,SSW,197,9.0,14.0,37,0.00,,,0.00,weatherlink.com 1.10,2013-06-06 10:53:00,
2013-06-06 05:08:00,72.2,46.0,29.95,SSW,206,10.0,14.0,39,0.00,,,0.00,weatherlink.com 1.10,2013-06-06 11:08:00,
2013-06-06 05:23:00,72.2,47.0,29.96,SSW,198,5.0,16.0,40,0.00,,,0.00,weatherlink.com 1.10,2013-06-06 11:23:00,
2013-06-06 05:38:00,72.2,47.0,29.96,South,182,6.0,11.0,40,0.00,,,0.00,weatherlink.com 1.10,2013-06-06 11:38:00,
2013-06-06 05:54:00,72.1,46.0,29.97,SSW,194,7.0,10.0,40,0.00,,,0.00,weatherlink.com 1.10,2013-06-06 11:54:00,
2013-06-06 06:09:00,71.9,47.0,29.98,South,178,3.0,8.0,41,0.00,,,0.00,weatherlink.com 1.10,2013-06-06 12:09:00,
2013-06-06 06:24:00,71.4,47.0,29.99,SE,137,2.0,5.0,42,0.00,,,0.00,weatherlink.com 1.10,2013-06-06 12:24:00,
2013-06-06 06:39:00,71.5,47.0,30.00,SSW,200,4.0,7.0,41,0.00,,,0.00,weatherlink.com 1.10,2013-06-06 12:39:00,
2013-06-06 06:54:00,71.7,47.0,30.00,SSE,155,2.0,6.0,41,0.00,,,0.00,weatherlink.com 1.10,2013-06-06 12:54:00,
2013-06-06 07:10:00,72.5,47.0,30.00,SSW,199,4.0,7.0,40,0.00,,,0.00,weatherlink.com 1.10,2013-06-06 13:10:00,
2013-06-06 07:25:00,73.0,45.0,30.00,SSE,166,5.0,10.0,37,0.00,,,0.00,weatherlink.com 1.10,2013-06-06 13:25:00,
2013-06-06 07:40:00,73.9,45.0,29.99,SSW,197,7.0,8.0,36,0.00,,,0.00,weatherlink.com 1.10,2013-06-06 13:40:00,
2013-06-06 07:55:00,74.6,45.0,30.00,SSW,192,8.0,11.0,35,0.00,,,0.00,weatherlink.com 1.10,2013-06-06 13:55:00,
2013-06-06 08:10:00,75.1,46.0,30.00,South,185,4.0,9.0,35,0.00,,,0.00,weatherlink.com 1.10,2013-06-06 14:10:00,
2013-06-06 08:25:00,75.6,45.0,30.01,SE,140,3.0,11.0,34,0.00,,,0.00,weatherlink.com 1.10,2013-06-06 14:25:00,
2013-06-06 08:41:00,76.0,46.0,30.01,SE,130,4.0,9.0,34,0.00,,,0.00,weatherlink.com 1.10,2013-06-06 14:41:00,
2013-06-06 08:56:00,76.9,46.0,30.02,South,187,7.0,9.0,33,0.00,,,0.00,weatherlink.com 1.10,2013-06-06 14:56:00,
2013-06-06 09:11:00,77.6,45.0,30.02,SSW,209,2.0,8.0,32,0.00,,,0.00,weatherlink.com 1.10,2013-06-06 15:11:00,
2013-06-06 09:26:00,78.0,46.0,30.02,SSE,159,2.0,8.0,32,0.00,,,0.00,weatherlink.com 1.10,2013-06-06 15:26:00,
2013-06-06 09:41:00,77.5,46.0,30.02,WNW,287,2.0,8.0,33,0.00,,,0.00,weatherlink.com 1.10,2013-06-06 15:41:00,
2013-06-06 09:56:00,80.8,46.0,30.02,South,176,5.0,11.0,29,0.00,,,0.00,weatherlink.com 1.10,2013-06-06 15:56:00,
2013-06-06 10:12:00,82.4,45.0,30.02,ESE,111,9.0,10.0,27,0.00,,,0.00,weatherlink.com 1.10,2013-06-06 16:12:00,
2013-06-06 10:27:00,82.3,45.0,30.02,South,175,1.0,11.0,27,0.00,,,0.00,weatherlink.com 1.10,2013-06-06 16:27:00,
2013-06-06 10:42:00,84.0,44.0,30.02,ESE,123,5.0,14.0,25,0.00,,,0.00,weatherlink.com 1.10,2013-06-06 16:42:00,
2013-06-06 10:57:00,85.2,44.0,30.02,SE,132,6.0,11.0,24,0.00,,,0.00,weatherlink.com 1.10,2013-06-06 16:57:00,
2013-06-06 11:12:00,86.2,45.0,30.02,South,178,6.0,13.0,24,0.00,,,0.00,weatherlink.com 1.10,2013-06-06 17:12:00,
2013-06-06 11:27:00,86.2,45.0,30.02,SE,138,7.0,14.0,24,0.00,,,0.00,weatherlink.com 1.10,2013-06-06 17:27:00,
2013-06-06 11:43:00,87.9,45.0,30.02,ESE,123,9.0,16.0,23,0.00,,,0.00,weatherlink.com 1.10,2013-06-06 17:43:00,
2013-06-06 11:58:00,88.6,46.0,30.01,ESE,103,2.0,13.0,23,0.00,,,0.00,weatherlink.com 1.10,2013-06-06 17:58:00,
2013-06-06 12:13:00,89.4,47.0,30.01,SE,134,3.0,13.0,23,0.00,,,0.00,weatherlink.com 1.10,2013-06-06 18:13:00,
2013-06-06 12:28:00,90.1,45.0,30.01,SSE,155,5.0,18.0,21,0.00,,,0.00,weatherlink.com 1.10,2013-06-06 18:28:00,
2013-06-06 12:43:00,90.6,44.0,30.00,South,177,5.0,11.0,20,0.00,,,0.00,weatherlink.com 1.10,2013-06-06 18:43:00,
2013-06-06 12:58:00,91.4,45.0,29.99,SSE,153,8.0,13.0,20,0.00,,,0.00,weatherlink.com 1.10,2013-06-06 18:58:00,
2013-06-06 13:14:00,92.4,44.0,29.99,SE,138,9.0,10.0,19,0.00,,,0.00,weatherlink.com 1.10,2013-06-06 19:14:00,
2013-06-06 13:29:00,93.3,43.0,29.99,ENE,60,5.0,13.0,18,0.00,,,0.00,weatherlink.com 1.10,2013-06-06 19:29:00,
2013-06-06 13:44:00,93.9,44.0,29.98,SSE,164,0.0,11.0,18,0.00,,,0.00,weatherlink.com 1.10,2013-06-06 19:44:00,
2013-06-06 13:59:00,94.6,43.0,29.98,East,82,3.0,11.0,17,0.00,,,0.00,weatherlink.com 1.10,2013-06-06 19:59:00,
2013-06-06 14:15:00,94.0,44.0,29.97,East,79,2.0,11.0,18,0.00,,,0.00,weatherlink.com 1.10,2013-06-06 20:15:00,
2013-06-06 14:30:00,95.5,42.0,29.96,ESE,103,5.0,9.0,16,0.00,,,0.00,weatherlink.com 1.10,2013-06-06 20:30:00,
2013-06-06 14:45:00,96.0,43.0,29.96,South,175,3.0,11.0,16,0.00,,,0.00,weatherlink.com 1.10,2013-06-06 20:45:00,
2013-06-06 15:00:00,97.4,42.0,29.95,SE,132,9.0,11.0,15,0.00,,,0.00,weatherlink.com 1.10,2013-06-06 21:00:00,
2013-06-06 15:15:00,97.4,42.0,29.95,SSE,157,5.0,12.0,15,0.00,,,0.00,weatherlink.com 1.10,2013-06-06 21:15:00,
2013-06-06 15:31:00,97.6,40.0,29.94,SE,127,5.0,13.0,14,0.00,,,0.00,weatherlink.com 1.10,2013-06-06 21:31:00,
2013-06-06 15:46:00,96.7,40.0,29.93,South,172,2.0,12.0,14,0.00,,,0.00,weatherlink.com 1.10,2013-06-06 21:46:00,
2013-06-06 16:01:00,98.6,39.0,29.93,SE,142,5.0,10.0,13,0.00,,,0.00,weatherlink.com 1.10,2013-06-06 22:01:00,
2013-06-06 16:16:00,97.7,39.0,29.92,ENE,66,7.0,11.0,13,0.00,,,0.00,weatherlink.com 1.10,2013-06-06 22:16:00,
2013-06-06 16:31:00,97.7,39.0,29.91,South,173,8.0,13.0,13,0.00,,,0.00,weatherlink.com 1.10,2013-06-06 22:31:00,
2013-06-06 16:46:00,97.7,39.0,29.91,SSE,151,3.0,11.0,13,0.00,,,0.00,weatherlink.com 1.10,2013-06-06 22:46:00,
2013-06-06 17:02:00,96.6,40.0,29.90,ESE,112,9.0,12.0,14,0.00,,,0.00,weatherlink.com 1.10,2013-06-06 23:02:00,
2013-06-06 17:17:00,97.4,38.0,29.90,South,173,8.0,13.0,13,0.00,,,0.00,weatherlink.com 1.10,2013-06-06 23:17:00,
2013-06-06 17:32:00,97.4,36.0,29.89,East,101,8.0,8.0,12,0.00,,,0.00,weatherlink.com 1.10,2013-06-06 23:32:00,
2013-06-06 17:47:00,94.9,36.0,29.89,SSW,211,2.0,8.0,13,0.00,,,0.00,weatherlink.com 1.10,2013-06-06 23:47:00,
2013-06-06 18:02:00,95.3,37.0,29.89,SSE,159,10.0,13.0,13,0.00,,,0.00,weatherlink.com 1.10,2013-06-07 00:02:00,
2013-06-06 18:18:00,95.4,39.0,29.88,SE,128,2.0,12.0,14,0.00,,,0.00,weatherlink.com 1.10,2013-06-07 00:18:00,
2013-06-06 18:33:00,95.2,38.0,29.88,SSE,165,6.0,8.0,14,0.00,,,0.00,weatherlink.com 1.10,2013-06-07 00:33:00,
2013-06-06 18:48:00,93.7,37.0,29.89,SE,131,9.0,9.0,14,0.00,,,0.00,weatherlink.com 1.10,2013-06-07 00:48:00,
2013-06-06 19:03:00,92.9,37.0,29.89,South,172,5.0,10.0,14,0.00,,,0.00,weatherlink.com 1.10,2013-06-07 01:03:00,
2013-06-06 19:18:00,91.9,39.0,29.89,SE,141,0.0,8.0,16,0.00,,,0.00,weatherlink.com 1.10,2013-06-07 01:18:00,
2013-06-06 19:33:00,91.0,37.0,29.90,SSE,149,5.0,7.0,15,0.00,,,0.00,weatherlink.com 1.10,2013-06-07 01:33:00,
2013-06-06 19:48:00,89.8,38.0,29.91,ESE,116,1.0,6.0,16,0.00,,,0.00,weatherlink.com 1.10,2013-06-07 01:48:00,
2013-06-06 20:04:00,88.9,37.0,29.91,ENE,78,4.0,8.0,16,0.00,,,0.00,weatherlink.com 1.10,2013-06-07 02:04:00,
2013-06-06 20:19:00,87.4,43.0,29.92,East,87,9.0,14.0,21,0.00,,,0.00,weatherlink.com 1.10,2013-06-07 02:19:00,
2013-06-06 20:34:00,86.4,43.0,29.95,NE,56,8.0,16.0,22,0.00,,,0.00,weatherlink.com 1.10,2013-06-07 02:34:00,
2013-06-06 20:49:00,81.9,45.0,29.99,NNE,14,15.0,22.0,27,0.00,,,0.00,weatherlink.com 1.10,2013-06-07 02:49:00,
2013-06-06 21:04:00,79.0,42.0,30.00,NNE,24,15.0,25.0,27,0.00,,,0.00,weatherlink.com 1.10,2013-06-07 03:04:00,
2013-06-06 21:20:00,78.7,42.0,30.00,NNE,17,4.0,19.0,27,0.00,,,0.00,weatherlink.com 1.10,2013-06-07 03:20:00,
2013-06-06 21:35:00,78.6,42.0,30.00,WNW,302,5.0,9.0,27,0.00,,,0.00,weatherlink.com 1.10,2013-06-07 03:35:00,
2013-06-06 21:50:00,78.9,41.0,30.00,NE,48,4.0,7.0,26,0.00,,,0.00,weatherlink.com 1.10,2013-06-07 03:50:00,
2013-06-06 22:05:00,79.2,41.0,30.00,NE,41,1.0,5.0,26,0.00,,,0.00,weatherlink.com 1.10,2013-06-07 04:05:00,
2013-06-06 22:21:00,79.1,41.0,30.01,West,273,0.0,5.0,26,0.00,,,0.00,weatherlink.com 1.10,2013-06-07 04:21:00,
2013-06-06 22:36:00,79.1,40.0,30.01,SW,236,2.0,5.0,25,0.00,,,0.00,weatherlink.com 1.10,2013-06-07 04:36:00,
2013-06-06 22:51:00,79.2,40.0,30.01,SW,221,0.0,1.0,25,0.00,,,0.00,weatherlink.com 1.10,2013-06-07 04:51:00,
2013-06-06 23:06:00,79.3,38.0,30.01,ENE,59,3.0,13.0,23,0.00,,,0.00,weatherlink.com 1.10,2013-06-07 05:06:00,
2013-06-06 23:21:00,79.4,37.0,30.01,ENE,59,1.0,8.0,22,0.00,,,0.00,weatherlink.com 1.10,2013-06-07 05:21:00,
2013-06-06 23:36:00,79.0,38.0,30.00,ENE,59,0.0,2.0,23,0.00,,,0.00,weatherlink.com 1.10,2013-06-07 05:36:00,
2013-06-06 23:51:00,78.4,38.0,29.99,NW,309,0.0,4.0,23,0.00,,,0.00,weatherlink.com 1.10,2013-06-07 05:51:00,